AirNav   ATP
 
 665 users online  

H70 Stratford Field Airport
Stratford, Texas, USA

GOING TO STRATFORD?


FAA INFORMATION EFFECTIVE 29 MARCH 2018

Location

FAA Identifier: H70
Lat/Long: 36-20-44.3000N / 102-02-57.3000W
36-20.738333N / 102-02.955000W
36.3456389 / -102.0492500
(estimated)
Elevation: 3668.2 ft. / 1118.1 m (surveyed)
Variation: 09E (1985)
From city: 1 mile NE of STRATFORD, TX
Time zone: UTC -5 (UTC -6 during Standard Time)
Zip code: 79084

Airport Operations

Airport use: Open to the public
Activation date: 12/1946
Control tower: no
ARTCC: ALBUQUERQUE CENTER
FSS: FORT WORTH FLIGHT SERVICE STATION
NOTAMs facility: FTW (NOTAM-D service available)
Attendance: UNATNDD
Pattern altitude: 4668.2 ft. MSL
Wind indicator: lighted
Segmented circle: no
Lights: ACTVT LIRL RY 04/22 5 X- CTAF.

Airport Communications

CTAF: 122.9
  • COMMUNICATIONS PROVIDED BY FORT WORTH RADIO ON FREQS 122.2 & 255.4 (DALHART RCO).

Nearby radio navigation aids

VOR radial/distance  VOR name  Freq  Var
DHTr046/28.4DALHART VORTAC112.0012E

 
NDB name  Hdg/Dist  Freq  Var  ID
GUYMON222/34.027509EGUY --. ..- -.--

Airport Services

Fuel available: EMERGENCY FUEL 100LL ONLY.
Parking: hangars and tiedowns
Airframe service: NONE
Powerplant service: NONE
Bottled oxygen: NONE
Bulk oxygen: NONE

Runway Information

Runway 4/22

Dimensions: 3023 x 32 ft. / 921 x 10 m
Surface: asphalt, in good condition
Weight bearing capacity: 
Single wheel: 9.0
Runway edge lights: low intensity
RY 04/22 NSTD LIRL; LGTS LCTD 33 FT FM EDGE OF PAVEMENT.
Runway edge markings: RY 04/22 NOT MARKED.
RUNWAY 4  RUNWAY 22
Latitude: 36-20.592200N36-20.885550N
Longitude: 102-03.204267W102-02.706533W
Elevation: 3668.2 ft.3652.3 ft.
Gradient: 0.5% UP
Traffic pattern: leftleft
Runway heading: 045 magnetic, 054 true225 magnetic, 234 true
Touchdown point: yes, no lightsyes, no lights
Obstructions: 15 ft. road, 200 ft. from runway, 50 ft. right of centerline
+20 FT HGR AT THR 80 FT RIGHT CNTRLN.
15 ft. road, 200 ft. from runway, 35 ft. right of centerline
15 FT ROAD 166 FT FM THLD, O BOTH SIDES

Airport Ownership and Management from official FAA records

Ownership: Privately-owned
Owner: SKYRANCHERS INC.
PO BOX 223
STRATFORD, TX 79084
Phone (806) 753-7866
Manager: ROGER WELLS
BOX 223
STRATFORD, TX 79084
Phone (806) 753-7866

Airport Operational Statistics

Aircraft based on the field: 6
Single engine airplanes: 6
    
Aircraft operations: avg 22/month *
62% local general aviation
38% transient general aviation
* for 12-month period ending 20 September 2017

Additional Remarks

SEWAGE TREATMENT PLANT LCTD SOUTH OF RY.

Instrument Procedures

NOTE: All procedures below are presented as PDF files. If you need a reader for these files, you should download the free Adobe Reader.

NOT FOR NAVIGATION. Please procure official charts for flight.
FAA instrument procedures published for use from 29 March 2018 at 0901Z to 26 April 2018 at 0900Z.

NOTE: Special Take-Off Minimums/Departure Procedures apply   download (113KB)

Other nearby airports with instrument procedures:

KDUX - Moore County Airport (29 nm S)
E19 - Gruver Municipal Airport (31 nm E)
KDHT - Dalhart Municipal Airport (31 nm SW)
KGUY - Guymon Municipal Airport (33 nm NE)
17K - Boise City Airport (34 nm NW)
 
Loc | Ops | Rwys | IFR | FBO | Links
Com | Nav | Svcs | Stats | Notes

AirNav Hotels Sweepstakes
 
Area around H70 (Stratford Field Airport)
 
Road maps at: MapQuest Bing Google
 
Aerial photo
WARNING: Photo may not be current or correct
Aerial photo of H70 (Stratford Field Airport)
Photo by R. Johnson

Do you have a better or more recent aerial photo of Stratford Field Airport that you would like to share? If so, please send us your photo.

 
Sectional chart

 
Airport distance calculator
Flying to Stratford Field Airport? Find the distance to fly.

From to H70

Sunrise and sunset
Times for 20-Apr-2018
 Local
(UTC-5)
 Zulu
(UTC)
Morning civil twilight06:4211:42
Sunrise07:0912:09
Sunset20:2501:25
Evening civil twilight20:5201:52

Current date and time
Zulu (UTC)  21-Apr-2018 03:50:47
Local (UTC-5)  20-Apr-2018 22:50:47
 
METAR
KDUX 
29nm S 
210335Z AUTO 02010G16KT 1 1/4SM -RA BKN005 OVC009 06/05 A3002 RMK AO2 P0022 T00610053
KDHT 
31nm SW 
210325Z AUTO 08019KT 7SM OVC004 08/07 A3000 RMK AO2 LTG DSNT E T00780072
KGUY 
33nm NE 
210316Z AUTO 05015KT 6SM RA BR BKN009 BKN021 OVC037 07/07 A3006 RMK AO2 PRESFR P0006 T00720072
KEHA 
40nm N 
210335Z AUTO 11017G25KT 10SM BKN006 BKN036 08/07 A3005 RMK AO2 T00750072
KBGD 
50nm SE 
210251Z AUTO 07013KT 6SM -RA BR OVC060 10/08 A3001 RMK AO2 LTG DSNT SW SLP154 P0013 60031 T01000078 50033
TAF
KDHT 
31nm SW 
202148Z 2022/2118 13025G35KT 3SM SHRA SCT009 OVC040 TEMPO 2023/2103 1SM TSRA OVC025CB FM210300 14017KT P6SM OVC009 FM211200 35010KT P6SM OVC010 FM211700 01013G20KT P6SM BKN025
KGUY 
33nm NE 
201838Z 2019/2118 15017G26KT P6SM -TSRA OVC050CB FM210000 15019G30KT 4SM SHRA SCT009 OVC030 FM210200 15015KT P6SM OVC007 FM211300 04012KT P6SM OVC009
NOTAMs
Click for the latest NOTAMs
NOTAMs are issued by the DoD/FAA and will open in a separate window not controlled by AirNav.

 

 
 

Would you like to see your business listed on this page?

 If your business provides an interesting product or service to pilots, flight crews, aircraft, or users of the Stratford Field Airport, you should consider listing it here.  To start the listing process, click on the button below
 
Add a business
 

Other Pages about Stratford Field Airport

Update a link
 
Copyright © AirNav, LLC. All rights reserved. Privacy Policy  Contact